YAOGAN-7

Last updated on Thu Oct 30 2025 00:02:31 GMT+0000 (Coordinated Universal Time)

1 36110U 09069A 25302.41127530 .00000948 00000+0 13917-3 0 9994 2 36110 98.0327 184.3236 0026083 64.4340 295.9562 14.77628679855541
UTC large
Height (km)
Speed (km/s)
/
Latitude / Longitude
Inclination (degrees)
Orbital Period (minutes)
Azimuth
Elevation
Range (km)
Doppler Factor

Next 0 passes for location: London (51.5072 / 0.1276)

Sorry there are no passes over London.